Regional Weather Roundup
Issued by NWS

Home | Current Version | Previous Version | Text Only | Print | Product List | Glossary Off
Versions: 1 2 3 4 5 6 7 8 9 10 11 12 13 14 15 16 17 18 19 20 21 22 23 24 25 26 27 28 29 30 31 32 33 34 35 36 37 38 39 40 41 42 43 44 45 46 47 48 49 50

000
ASUS43 KBIS 281420
RWRND

NORTH DAKOTA REGIONAL WEATHER ROUNDUP
NATIONAL WEATHER SERVICE BISMARCK ND
800 AM CST SAT FEB 28 2015

NOTE: "FAIR" INDICATES FEW OR NO CLOUDS BELOW 12,000 FEET WITH NO
SIGNIFICANT WEATHER AND/OR OBSTRUCTIONS TO VISIBILITY.


NDZ001>003-009>011-017-281500-
NORTHWEST NORTH DAKOTA

CITY           SKY/WX    TMP DP  RH WIND       PRES   REMARKS
WILLISTON      MOCLDY    -1  -8  72 W7        30.16R WCI -14
MINOT          CLOUDY     8   1  73 NW12      30.06R WCI  -7
MINOT AFB      CLOUDY     6   1  83 NW16      30.07R WCI -13
$$

NDZ018>021-031>035-040>046-281500-
SOUTHWEST NORTH DAKOTA

CITY           SKY/WX    TMP DP  RH WIND       PRES   REMARKS
BISMARCK       CLOUDY     8   3  80 CALM      30.08S
DICKINSON      CLOUDY    10   5  80 W21       30.03R WCI  -9
GARRISON         N/A     10   4  76 CALM      30.04S
HETTINGER ARPT CLEAR      6   1  80 W12       30.05R WCI  -9
$$

NDZ004>008-012>016-024-026-027-054-281500-
NORTHEAST NORTH DAKOTA

CITY           SKY/WX    TMP DP  RH WIND       PRES   REMARKS
GRAND FORKS    CLOUDY     4  -2  76 S16       30.21F WCI -15
GRND FRKS AFB  CLOUDY     4  -3  71 S10       30.19S WCI -11
DEVILS LAKE    MOCLDY     7  -2  66 S5        30.09S WCI  -2
$$

NDZ022-023-025-028>030-036>039-047>053-281500-
SOUTHEAST NORTH DAKOTA

CITY           SKY/WX    TMP DP  RH WIND       PRES   REMARKS
FARGO          MOCLDY     6  -2  69 S14       30.26S WCI -11
JAMESTOWN      CLEAR      3  -3  76 S14       30.12F WCI -15
$$




USA.gov is the U.S. government's official web portal to all federal, state and local government web resources and services.